Weather History for Valley City, ND

Change the Weather History Date:

Thursday, April 11, 2013

  Actual Average (KJMS) Record (KJMS)
Temperature  
Mean Temperature 29 °F 40 °F  
Max Temperature 32 °F 53 °F 84 °F (1968)
Min Temperature 26 °F 28 °F 0 °F (1939)
Degree Days  
Heating Degree Days 36 25  
Month to date heating degree days 300  
Since 1 July heating degree days 8220  
Cooling Degree Days 0 0  
Month to date cooling degree days 0  
Year to date cooling degree days 0  
Moisture  
Dew Point 26 °F    
Average Humidity 92    
Maximum Humidity 100    
Minimum Humidity 69    
Precipitation  
Precipitation 0.95 in 0.03 in 0.84 in (1965)
Month to date precipitation 0.35  
Year to date precipitation 2.04  
Sea Level Pressure  
Sea Level Pressure 29.87 in    
Wind  
Wind Speed 14 mph (NE)    
Max Wind Speed 24 mph    
Max Gust Speed 34 mph    
Visibility 7 miles    
Events Rain , Snow    
T = Trace of Precipitation, MM = Missing Value Source: NWS Daily Summary

Daily Weather History Graph

Daily Weather History Graph

Search for Another Location

Airport:

Trip Planner

Search our weather history database for the weather conditions in past years. The results will help you decide how hot, cold, wet, or windy it might be!

Date:

Astronomy

Apr. 11, 2013 Rise Set
Actual Time 6:51 AM CDT 8:15 PM CDT
Civil Twilight 6:19 AM CDT 8:47 PM CDT
Nautical Twilight 5:41 AM CDT 9:25 PM CDT
Astronomical Twilight 5:00 AM CDT 10:06 PM CDT
Moon 7:18 AM CDT (4/11) 9:58 PM CDT (4/11)
Length of Visible Light 14h 27m
Length of Day
13h 24m
New Moon, 2% of the Moon is Illuminated
Apr 11
New Moon
Apr 18
First Quarter
Apr 25
Full
May 2
Last Quarter
May 9
New

Hourly Weather History & Observations

Time (CDT) Temp. Windchill Dew Point Humidity Pressure Visibility Wind Dir Wind Speed Gust Speed Precip Events Conditions
12:15 AM 28.4 °F 18.0 °F 23.0 °F 80% 30.02 in 10.0 mi NNE 12.7 mph 16.1 mph N/A   Overcast
12:35 AM 28.4 °F 19.7 °F 24.8 °F 86% 30.02 in 10.0 mi NNE 9.2 mph - N/A   Overcast
12:55 AM 28.4 °F 20.4 °F 24.8 °F 86% 30.01 in 10.0 mi NNE 8.1 mph - N/A   Overcast
1:15 AM 28.4 °F 19.1 °F 24.8 °F 86% 30.00 in 10.0 mi NNE 10.4 mph - N/A   Overcast
1:35 AM 28.4 °F 18.5 °F 24.8 °F 86% 29.99 in 10.0 mi NNE 11.5 mph - N/A   Overcast
1:55 AM 28.4 °F 18.5 °F 24.8 °F 86% 29.98 in 10.0 mi NNE 11.5 mph - N/A   Overcast
2:15 AM 28.4 °F 17.5 °F 24.8 °F 86% 29.97 in 10.0 mi NE 13.8 mph - N/A   Overcast
2:35 AM 28.4 °F 17.0 °F 24.8 °F 86% 29.96 in 10.0 mi NE 15.0 mph 18.4 mph N/A   Overcast
2:55 AM 28.4 °F 18.0 °F 23.0 °F 80% 29.95 in 10.0 mi NE 12.7 mph 17.3 mph N/A   Overcast
3:15 AM 30.2 °F 20.2 °F 23.0 °F 75% 29.93 in 10.0 mi NE 12.7 mph 18.4 mph N/A   Overcast
3:35 AM 30.2 °F 20.8 °F 23.0 °F 75% 29.93 in 10.0 mi NE 11.5 mph - N/A   Overcast
3:55 AM 28.4 °F 18.5 °F 23.0 °F 80% 29.92 in 10.0 mi NE 11.5 mph 18.4 mph N/A   Overcast
4:15 AM 28.4 °F 19.1 °F 23.0 °F 80% 29.92 in 10.0 mi ENE 10.4 mph - N/A   Overcast
4:35 AM 28.4 °F 17.5 °F 24.8 °F 86% 29.92 in 10.0 mi ENE 13.8 mph 18.4 mph N/A   Overcast
4:55 AM 28.4 °F 19.1 °F 24.8 °F 86% 29.91 in 10.0 mi NE 10.4 mph - N/A   Overcast
5:15 AM 28.4 °F 19.1 °F 24.8 °F 86% 29.89 in 10.0 mi NE 10.4 mph - N/A   Overcast
5:35 AM 28.4 °F 18.5 °F 24.8 °F 86% 29.88 in 10.0 mi NE 11.5 mph - N/A   Overcast
5:55 AM 28.4 °F 19.1 °F 24.8 °F 86% 29.86 in 10.0 mi NE 10.4 mph - N/A   Overcast
6:15 AM 28.4 °F 16.6 °F 23.0 °F 80% 29.86 in 10.0 mi NE 16.1 mph 20.7 mph N/A   Overcast
6:35 AM 28.4 °F 17.0 °F 24.8 °F 86% 29.85 in 10.0 mi NE 15.0 mph 23.0 mph N/A   Overcast
6:55 AM 28.4 °F 17.5 °F 24.8 °F 86% 29.85 in 10.0 mi NE 13.8 mph - N/A   Overcast
7:15 AM 28.4 °F 18.0 °F 24.8 °F 86% 29.85 in 10.0 mi NE 12.7 mph - N/A   Overcast
7:35 AM 28.4 °F 19.1 °F 24.8 °F 86% 29.86 in 10.0 mi NE 10.4 mph - N/A   Overcast
7:55 AM 28.4 °F 18.5 °F 24.8 °F 86% 29.86 in 10.0 mi ENE 11.5 mph - N/A   Mostly Cloudy
8:15 AM 28.4 °F 18.0 °F 24.8 °F 86% 29.86 in 10.0 mi NE 12.7 mph - N/A   Overcast
8:35 AM 30.2 °F 21.3 °F 23.0 °F 75% 29.86 in 10.0 mi NE 10.4 mph - N/A   Overcast
8:55 AM 30.2 °F 20.8 °F 23.0 °F 75% 29.87 in 10.0 mi NE 11.5 mph - N/A   Overcast
9:15 AM 30.2 °F 19.8 °F 23.0 °F 75% 29.87 in 10.0 mi NE 13.8 mph 19.6 mph N/A   Overcast
9:35 AM 30.2 °F 20.2 °F 21.2 °F 69% 29.86 in 10.0 mi ENE 12.7 mph - N/A   Mostly Cloudy
9:55 AM 30.2 °F 21.3 °F 23.0 °F 75% 29.86 in 10.0 mi NE 10.4 mph 18.4 mph N/A   Mostly Cloudy
10:15 AM 30.2 °F 18.9 °F 23.0 °F 75% 29.86 in 8.0 mi NE 16.1 mph - N/A Snow Light Snow
10:35 AM 28.4 °F 16.2 °F 23.0 °F 80% 29.87 in 3.0 mi East 17.3 mph - N/A Snow Light Snow
10:55 AM 28.4 °F 17.5 °F 26.6 °F 93% 29.87 in 2.5 mi ENE 13.8 mph 20.7 mph 0.02 in Snow Light Snow
11:15 AM 28.4 °F 17.0 °F 26.6 °F 93% 29.87 in 2.0 mi NE 15.0 mph - 0.02 in Snow Light Snow
11:35 AM 28.4 °F 17.5 °F 28.4 °F 100% 29.86 in 1.0 mi NE 13.8 mph 19.6 mph 0.14 in Snow Light Snow
12:15 PM 28.4 °F 17.0 °F 28.4 °F 100% 29.86 in 0.5 mi NE 15.0 mph 23.0 mph 0.18 in Snow Snow
12:35 PM 28.4 °F 17.0 °F 28.4 °F 100% 29.86 in 1.2 mi NE 15.0 mph 21.9 mph 0.27 in Snow Light Snow
12:55 PM 28.4 °F 16.2 °F 28.4 °F 100% 29.85 in 1.2 mi NE 17.3 mph 25.3 mph 0.34 in Snow Light Snow
1:15 PM 28.4 °F 16.6 °F 28.4 °F 100% 29.85 in 2.5 mi NE 16.1 mph 25.3 mph 0.02 in Snow Light Snow
1:35 PM 32.0 °F 20.1 °F 32.0 °F 100% 29.84 in 3.0 mi NE 19.6 mph 24.2 mph 0.03 in   Mostly Cloudy
1:55 PM 30.2 °F 17.4 °F 28.4 °F 93% 29.84 in 3.0 mi NE 20.7 mph 26.5 mph 0.04 in Snow Light Snow
2:15 PM 28.4 °F 14.7 °F 28.4 °F 100% 29.83 in 5.0 mi NE 21.9 mph 26.5 mph N/A Rain Light Freezing Rain
2:35 PM 28.4 °F 14.7 °F 28.4 °F 100% 29.83 in 9.0 mi NE 21.9 mph 31.1 mph N/A Snow Light Snow
2:55 PM 28.4 °F 14.1 °F 28.4 °F 100% 29.83 in 5.0 mi ENE 24.2 mph 28.8 mph N/A Snow Light Snow
3:15 PM 28.4 °F 15.4 °F 28.4 °F 100% 29.83 in 3.0 mi ENE 19.6 mph 28.8 mph 0.01 in Snow Light Snow
3:35 PM 28.4 °F 15.8 °F 28.4 °F 100% 29.83 in 1.5 mi ENE 18.4 mph 24.2 mph 0.04 in Snow Light Snow
3:55 PM 28.4 °F 14.4 °F 28.4 °F 100% 29.83 in 1.0 mi NE 23.0 mph 28.8 mph 0.11 in Snow Light Snow
4:15 PM 26.6 °F 12.4 °F 26.6 °F 100% 29.83 in 1.5 mi NE 21.9 mph 27.6 mph 0.01 in Snow Light Snow
4:35 PM 28.4 °F 15.1 °F 28.4 °F 100% 29.83 in 3.0 mi ENE 20.7 mph 27.6 mph 0.03 in Snow Light Snow
4:55 PM 26.6 °F 12.4 °F 26.6 °F 100% 29.83 in 3.0 mi ENE 21.9 mph 34.5 mph 0.04 in Snow Light Snow
5:15 PM 26.6 °F 12.7 °F 26.6 °F 100% 29.84 in 5.0 mi NE 20.7 mph 28.8 mph N/A Snow Light Snow
5:35 PM 26.6 °F 12.7 °F 26.6 °F 100% 29.84 in 5.0 mi NE 20.7 mph 28.8 mph 0.01 in Snow Light Snow
5:55 PM 26.6 °F 13.8 °F 26.6 °F 100% 29.84 in 3.0 mi NE 17.3 mph 25.3 mph 0.02 in Snow Light Snow
6:15 PM 26.6 °F 13.8 °F 26.6 °F 100% 29.84 in 5.0 mi NE 17.3 mph 25.3 mph 0.01 in Snow Light Snow
6:35 PM 26.6 °F 13.1 °F 26.6 °F 100% 29.84 in 3.0 mi NE 19.6 mph 28.8 mph 0.03 in Snow Light Snow
6:55 PM 26.6 °F 12.7 °F 26.6 °F 100% 29.85 in 4.0 mi NE 20.7 mph 26.5 mph 0.05 in Snow Light Snow
7:15 PM 26.6 °F 13.4 °F 26.6 °F 100% 29.85 in 3.0 mi NE 18.4 mph 25.3 mph 0.01 in Snow Light Snow
7:35 PM 26.6 °F 13.4 °F 26.6 °F 100% 29.86 in 5.0 mi NE 18.4 mph 24.2 mph 0.03 in Snow Light Snow
7:55 PM 26.6 °F 14.7 °F 26.6 °F 100% 29.85 in 7.0 mi NE 15.0 mph 21.9 mph 0.04 in Snow Light Snow
8:15 PM 26.6 °F 15.2 °F 26.6 °F 100% 29.85 in 7.0 mi NE 13.8 mph 19.6 mph N/A Snow Light Snow
8:35 PM 26.6 °F 14.7 °F 26.6 °F 100% 29.85 in 6.0 mi NE 15.0 mph 23.0 mph 0.01 in Snow Light Snow
8:55 PM 26.6 °F 14.7 °F 26.6 °F 100% 29.85 in 10.0 mi NE 15.0 mph 20.7 mph 0.02 in Snow Light Snow
9:15 PM 26.6 °F 14.7 °F 26.6 °F 100% 29.85 in 10.0 mi NE 15.0 mph - N/A Rain Light Freezing Rain
9:35 PM 26.6 °F 14.3 °F 26.6 °F 100% 29.85 in 7.0 mi NE 16.1 mph 20.7 mph N/A Snow Light Snow
9:55 PM 26.6 °F 14.7 °F 26.6 °F 100% 29.85 in 2.5 mi NE 15.0 mph 20.7 mph 0.09 in Snow Light Snow
10:15 PM 26.6 °F 14.7 °F 26.6 °F 100% 29.85 in 9.0 mi NE 15.0 mph - N/A Snow Light Snow
10:35 PM 26.6 °F 14.3 °F 26.6 °F 100% 29.85 in 7.0 mi NE 16.1 mph - 0.01 in Snow Light Snow
10:55 PM 26.6 °F 15.2 °F 26.6 °F 100% 29.85 in 10.0 mi NE 13.8 mph - 0.01 in Snow Light Snow
11:15 PM 26.6 °F 14.3 °F 26.6 °F 100% 29.86 in 10.0 mi NE 16.1 mph 19.6 mph N/A Snow Light Snow
11:35 PM 26.6 °F 15.7 °F 26.6 °F 100% 29.86 in 9.0 mi NE 12.7 mph 18.4 mph N/A Snow Light Snow
11:55 PM 26.6 °F 16.2 °F 26.6 °F 100% 29.86 in 5.0 mi NE 11.5 mph 17.3 mph 0.03 in Snow Light Snow